Location: Canyon City
(32.5951°N, 116.5278°W)
Time: 03:06:06
(UTC+00:00)

Cosmos 2360 Rocket - Pass Details

Date: 08 September 2024
Orbit: 835 x 842 km, 71.0° (Epoch: 10 October)

Event Time Altitude Azimuth Distance (km) Brightness Sun altitude
Rises 12:28:35 0° 338° (NNW) 3,386 5.3 -12.7°
Reaches altitude 10° 12:31:02 10° 338° (NNW) 2,448 4.5 -12.2°
Maximum altitude 12:36:39 82° 252° (WSW) 846 2.1 -11.0°
Drops below altitude 10° 12:42:14 10° 165° (SSE) 2,435 4.6 -9.9°
Sets 12:44:39 0° 164° (SSE) 3,367 5.4 -9.4°
